Regional Weather Roundup
Issued by NWS

Home | Current Version | Previous Version | Graphics & Text | Print | Product List | Glossary On
Versions: 1 2 3 4 5 6 7 8 9 10 11 12 13 14 15 16 17 18 19 20 21 22 23 24 25 26 27 28 29 30 31 32 33 34 35 36 37 38 39 40 41 42 43 44 45 46 47 48 49 50
000
ASUS43 KMPX 052201
RWRMN
WEATHER ROUNDUP FOR MINNESOTA
NATIONAL WEATHER SERVICE TWIN CITIES/CHANHASSEN MN
400 PM CST MON DEC 05 2016


NOTE: "FAIR" INDICATES FEW OR NO CLOUDS BELOW 12,000 FEET WITH NO
SIGNIFICANT WEATHER AND/OR OBSTRUCTIONS TO VISIBILITY. N/A MEANS
CURRENT SKY AND/OR WEATHER CONDITIONS ARE NOT AVAILABLE.

MNZ060>063-068>070-052300-
   Twin Cities Metro

CITY           SKY/WX    TMP DP  RH WIND       PRES   REMARKS
TWIN CITIES    CLOUDY    39  31  72 S10G23    29.67S
ST PAUL        CLOUDY    38  33  82 SE14      29.68F
CRYSTAL        MOCLDY    39  30  70 SE15G23   29.64S
BLAINE         CLOUDY    39  36  87 SE18G25   29.63F
LAKEVILLE      CLOUDY    36  34  93 S15G24    29.65S
EDEN PRAIRIE   MOCLDY    39  32  76 SE12G22   29.64S
SOUTH ST PAUL  MOCLDY    38  32  79 SE10G16   29.67S
LAKE ELMO      MOCLDY    37  32  81 SE10      29.68F
$$
MNZ001>005-007-008-013>017-022>024-027-028-052300-
   Northwest Minnesota

CITY           SKY/WX    TMP DP  RH WIND       PRES   REMARKS
BEMIDJI        CLOUDY    30  28  90 E12       29.62S WCI  21
HALLOCK        CLOUDY    30  28  93 NE8       29.66R WCI  23
ROSEAU         CLOUDY    30  27  86 E16       29.67F WCI  19
WARROAD        CLOUDY    30  27  86 E13G18    29.69S WCI  20
THIEF RVR FALL CLOUDY    29  27  92 E13       29.62F WCI  19
CROOKSTON      CLOUDY    32  28  86 E13       29.61S WCI  22
FOSSTON        CLOUDY    30  27  86 E10       29.59F WCI  21
DETROIT LAKES  FLURRIES  32  30  93 E10G22    29.54F WCI  24
MOORHEAD       CLOUDY    34  28  80 E7        29.55R WCI  28
PARK RAPIDS    LGT SNOW  33  27  78 E12       29.58F VSB 3/4 WCI  24
$$
MNZ006-009>011-018-025>026-052300-
   North Central Minnesota

CITY           SKY/WX    TMP DP  RH WIND       PRES   REMARKS
BAUDETTE       CLOUDY    30  25  81 E10       29.69S WCI  21
FLAG ISLAND    CLOUDY    30  25  80 E3        29.71S
INTL FALLS     CLOUDY    30  24  78 E8        29.72F WCI  22
WASKISH        CLOUDY    30  27  86 E10G18    29.67F WCI  21
BIG FORK       CLOUDY    30  27  86 NE8       29.68F WCI  23
LONGVILLE      CLOUDY    36  28  75 E6        29.63S
GRAND RAPIDS   CLOUDY    33  28  81 E6        29.68S WCI  28
CRANE LAKE     CLOUDY    28  27  93 CALM      29.77S
ORR            MOCLDY    28  25  86 E5        29.70R WCI  23
COOK           CLOUDY    28  27  93 E6        29.73R WCI  22
$$
MNZ012-019>021-037-052300-
   Northeast Minnesota

CITY           SKY/WX    TMP DP  RH WIND       PRES   REMARKS
DULUTH         CLOUDY    33  30  88 E15       29.73R WCI  23
ELY            CLOUDY    28  27  93 E7        29.74R WCI  21
HIBBING        CLOUDY    31  27  85 E10       29.69F WCI  22
EVELETH        PTCLDY    32  29  88 E7        29.72F WCI  26
DULUTH HARBOR  CLOUDY    37  34  87 E17       29.77R
TWO HARBORS    CLOUDY    36  30  80 E7        29.73F
SILVER BAY     MOCLDY    32  28  86 NE6       29.76F WCI  26
GRAND MARAIS     N/A     33  30  88 N3        29.82F
G MARAIS ARPRT CLOUDY    27  21  80 CALM      29.77S
$$
MNZ029>031-032-039>041-046>048-054>057-064-052300-
   West Central Minnesota

CITY           SKY/WX    TMP DP  RH WIND       PRES   REMARKS
FERGUS FALLS   CLOUDY    36  30  80 SE14G21   29.56R
WHEATON        CLOUDY    37  34  87 SE12      29.51F
MORRIS         CLOUDY    36  34  93 SE16      29.50R
ALEXANDRIA     MIX PCPN  34  32  92 E14       29.53F WCI  25
ELBOW LAKE     CLOUDY    35  32  90 SE13G21   29.52R WCI  26
WADENA         LGT SNOW  30  30 100 E12G17    29.56S VSB 1   WCI  21
GLENWOOD       PTCLDY    36  32  87 E16       29.53F
APPLETON       MOCLDY    37  34  87 SE7       29.51R
BENSON         CLOUDY    37  34  87 S12G17    29.52R
ORTONVILLE     CLOUDY    39  34  81 SE9       29.48F
MADISON        CLOUDY    43  37  81 SE7       29.49S
WILLMAR        FAIR      37  36  93 SE14      29.55R
$$
MNZ033>034-036-042>043-049>051-058-059-052300-
   Central Minnesota

CITY           SKY/WX    TMP DP  RH WIND       PRES   REMARKS
ST CLOUD       MOCLDY    35  33  92 E10       29.61R WCI  27
PAYNESVILLE    CLOUDY    37  36  94 SE10      29.57S
AITKIN         SNOW      34  28  80 E8        29.63F VSB 1/2 WCI  27
PINE RIVER     SNOW      30  30 100 E12       29.65F VSB 1/4 WCI  21
BRAINERD       HVY SNOW  32  31  96 E7        29.63R VSB 1/4 WCI  26
STAPLES        LGT SNOW  30  30 100 E7        29.58S VSB 3/4 WCI  23
LONG PRAIRIE   CLOUDY    32  32 100 E9        29.56F WCI  24
LITTLE FALLS   CLOUDY    32  32 100 E9        29.60F WCI  24
LITCHFIELD     PTCLDY    39  36  87 SE13      29.57S
BUFFALO        CLOUDY    40  32  73 SE13G20   29.61S
MAPLE LAKE     MOCLDY    39  34  80 SE10      29.61S
$$
MNZ037-044-045-052-053-052300-
   East Central Minnesota

CITY           SKY/WX    TMP DP  RH WIND       PRES   REMARKS
PRINCETON      CLOUDY    36  34  93 E3        29.64R
MORA           CLOUDY    32  32 100 E6        29.67F WCI  26
CAMBRIDGE      CLOUDY    37  34  87 SE6       29.62F
RUSH CITY      CLOUDY    34  32  93 SE8       29.66F WCI  27
MOOSE LAKE     LGT SNOW  32  32 100 E5        29.68F WCI  27
HINCKLEY       CLOUDY    34  32  93 E9        29.67F WCI  26
CLOQUET        LGT SNOW  34  30  86 E10       29.71F WCI  26
MCGREGOR       CLOUDY    32  32 100 E10       29.67F VSB 1   WCI  24
$$
MNZ071>073-080-081-089-090-097-098-052300-
   Southwest Minnesota

CITY           SKY/WX    TMP DP  RH WIND       PRES   REMARKS
MONTEVIDEO     CLOUDY    37  36  93 S6        29.53R
GRANITE FALLS  CLOUDY    41  37  84 S17       29.54R
CANBY          PTCLDY    44  34  67 CALM      29.50S
MARSHALL       PTCLDY    42  34  73 SW15      29.51R
REDWOOD FALLS  CLOUDY    43  35  73 S12       29.54R
OLIVIA         CLOUDY    39  36  87 SE10      29.53R
PIPESTONE      PTCLDY    41  36  81 SW15      29.51R
WINDOM         CLOUDY    45  34  65 S21G26    29.54S
WORTHINGTON    CLOUDY    42  34  73 S31G39    29.54R
JACKSON        CLOUDY    43  32  65 S22G28    29.58R
TRACY          CLOUDY    43  35  74 SW24G31   29.51R
SLAYTON        CLOUDY    40  34  80 S24       29.51S
$$
MNZ065>067-074>077-082>085-091>093-052300-
   South Central Minnesota

CITY           SKY/WX    TMP DP  RH WIND       PRES   REMARKS
NEW ULM        CLOUDY    43  36  75 S21G28    29.57S
ST JAMES       CLOUDY    43  37  81 SE18G24   29.59F
FAIRMONT       CLOUDY    42  36  79 S20       29.60R
GLENCOE        CLOUDY    41  37  85 SE17      29.59S
FARIBAULT      CLOUDY    37  34  87 SE20      29.67S
OWATONNA       CLOUDY    37  30  75 SE20G29   29.67S
WASECA         CLOUDY    36  32  87 SE17G25   29.65F
ALBERT LEA     PTCLDY    39  37  93 S20G30    29.68R
$$
MNZ078>079-086>088-094>096-052300-
   Southeast Minnesota

CITY           SKY/WX    TMP DP  RH WIND       PRES   REMARKS
ROCHESTER      CLOUDY    34  31  88 S23G31    29.72F WCI  22
RED WING       CLOUDY    37  32  81 SE13G22   29.70F
STANTON        CLOUDY    38  32  77 S23       29.67R
DODGE CENTER   CLOUDY    34  30  86 S21G29    29.70R WCI  22
WINONA         CLOUDY    37  32  81 SE8       29.81F
AUSTIN         MOCLDY    34  30  86 S12G17    29.72S WCI  25
PRESTON        CLOUDY    32  30  92 S18G25    29.78S WCI  21
$$
ABBREVIATIONS USED IN REMARKS
   TC - TEMPERATURES IN CELSIUS
  WCI - WIND CHILL INDEX
   HX - HEAT INDEX
  VSB - VISIBILITY
$$




USA.gov is the U.S. government's official web portal to all federal, state and local government web resources and services.